Location: Ferchesar
(52.6477°N, 12.4298°E)
Time: 08:14:29
(UTC+01:00)

Tiros 1 despin weight - Pass Details

Date: 12 December 2021
Orbit: 592 x 641 km, 48.2° (Epoch: 19 January)

Event Time Altitude Azimuth Distance (km) Brightness Sun altitude
Rises 15:09:12 0° 275° (W) 2,837 ? 4.2°
Reaches altitude 10° 15:11:48 10° 261° (W) 1,928 ? 4.0°
Maximum altitude 15:15:22 24° 207° (SSW) 1,232 ? 3.6°
Drops below altitude 10° 15:18:55 10° 153° (SSE) 1,916 ? 3.2°
Sets 15:21:30 0° 140° (SE) 2,816 ? 3.0°
